CW9197 Juva FI current weather conditions

sailwx.info

Wind from 214 at 5 knots gusting 8

Air temperature 15.6° C
Dewpoint 14.4° C

Last reported at 2016-Aug-27 03:55 UTC.
Time now 2016-Aug-27 06:27 UTC

Location: N 61°53' E 027°53'.
View on Google Maps.

See reports from other nearby stations

  
Tides and Currents Weather Stations Pressure Air Temp Water Temp Dewpoint Dewpoint Depression Visibility Wind Speed Wind Dir Waves Ship Positions
date/time (UTC)wind fromknots sea level pressurealtimeterstation pressurevisibilityair tempwater tempwave heightnotes
2016-Aug-27 03:55 214 5 gusting 8 15.6
2016-Aug-27 03:45 211 4 gusting 6 15.0
2016-Aug-27 03:35 214 4 gusting 8 15.0
2016-Aug-27 03:25 208 4 gusting 7 15.0
2016-Aug-27 03:15 200 4 gusting 10 15.0
2016-Aug-27 03:05 204 4 gusting 7 15.0
2016-Aug-27 02:55 205 4 gusting 9 15.0
2016-Aug-27 02:45 200 4 gusting 8 15.0
2016-Aug-27 02:35 208 3 gusting 9 15.0
2016-Aug-27 02:25 187 3 gusting 7 15.0
2016-Aug-27 02:15 201 3 gusting 7 15.0
2016-Aug-27 02:05 194 3 gusting 8 15.0
2016-Aug-27 01:55 199 2 gusting 5 15.0
2016-Aug-27 01:45 204 2 gusting 5 15.0
2016-Aug-27 01:35 200 3 gusting 7 15.0
2016-Aug-27 01:25 201 3 gusting 6 15.0
2016-Aug-27 01:15 202 3 gusting 7 15.0
2016-Aug-27 01:05 208 3 gusting 7 15.0
2016-Aug-27 00:55 188 3 gusting 10 15.0
2016-Aug-27 00:46 187 3 gusting 12 14.4
2016-Aug-27 00:35 176 3 gusting 7 14.4
2016-Aug-27 00:25 188 3 gusting 8 14.4
2016-Aug-27 00:15 185 3 gusting 8 14.4
2016-Aug-27 00:05 182 3 gusting 8 13.9
2016-Aug-26 23:55 176 2 gusting 5 13.9
2016-Aug-26 23:45 179 2 gusting 7 13.9
2016-Aug-26 23:35 180 3 gusting 8 14.4
2016-Aug-26 23:25 181 2 gusting 5 14.4
2016-Aug-26 23:15 193 1 gusting 5 13.9
2016-Aug-26 23:05 203 2 gusting 6 13.9
2016-Aug-26 22:55 201 2 gusting 5 14.4
2016-Aug-26 22:45 190 3 gusting 6 14.4
2016-Aug-26 22:35 183 4 gusting 14 13.9
2016-Aug-26 22:25 158 2 gusting 6 14.4
2016-Aug-26 22:15 182 1 gusting 4 14.4
2016-Aug-26 22:05 190 2 gusting 5 14.4
2016-Aug-26 21:55 173 2 gusting 6 14.4
2016-Aug-26 21:45 193 0 gusting 2 14.4
2016-Aug-26 21:35 189 0 gusting 3 14.4
2016-Aug-26 21:25 187 1 gusting 4 14.4
2016-Aug-26 21:15 173 0 gusting 2 14.4
2016-Aug-26 21:05 185 0 gusting 3 14.4
2016-Aug-26 20:55 183 0 gusting 1 14.4
2016-Aug-26 20:45 191 1 gusting 5 14.4
2016-Aug-26 20:35 199 1 gusting 4 14.4
2016-Aug-26 20:25 183 1 gusting 4 14.4
2016-Aug-26 20:15 204 1 gusting 4 14.4
2016-Aug-26 20:05 190 0 gusting 1 14.4
2016-Aug-26 19:55 203 0 gusting 1 13.9
2016-Aug-26 19:45 184 13.9
2016-Aug-26 19:35 182 0 gusting 3 13.9
2016-Aug-26 19:25 172 0 gusting 4 13.9
2016-Aug-26 19:15 183 0 gusting 2 13.9
2016-Aug-26 19:05 179 0 gusting 2 13.9
2016-Aug-26 18:55 176 13.9
2016-Aug-26 18:45 173 13.9
2016-Aug-26 18:35 151 14.4
2016-Aug-26 18:25 185 14.4
2016-Aug-26 18:15 14.4
2016-Aug-26 18:05 163 0 gusting 2 14.4
2016-Aug-26 17:55 190 0 gusting 2 14.4
2016-Aug-26 17:45 174 14.4
2016-Aug-26 17:35 167 14.4
2016-Aug-26 17:25 170 15.0
2016-Aug-26 17:15 170 15.0
2016-Aug-26 17:05 155 15.0
2016-Aug-26 16:55 177 15.6
2016-Aug-26 16:45 164 15.6
2016-Aug-26 16:35 158 16.1
2016-Aug-26 16:25 176 16.1
2016-Aug-26 16:15 16.1
2016-Aug-26 16:05 16.7
2016-Aug-26 15:55 157 16.7
2016-Aug-26 15:45 16.7
2016-Aug-26 15:35 16.7
2016-Aug-26 15:25 16.7
2016-Aug-26 15:15 213 16.7
2016-Aug-26 15:05 215 17.2
2016-Aug-26 14:55 218 0 gusting 1 17.2
2016-Aug-26 14:45 293 17.2
2016-Aug-26 14:35 262 17.2
2016-Aug-26 14:25 249 17.2
2016-Aug-26 14:15 312 17.2
2016-Aug-26 14:05 229 17.8
2016-Aug-26 13:55 254 1 gusting 5 17.8
2016-Aug-26 13:45 251 17.8
2016-Aug-26 13:35 255 17.8
2016-Aug-26 13:25 241 0 gusting 2 17.8
2016-Aug-26 13:15 262 0 gusting 5 17.8
2016-Aug-26 13:05 255 17.8
2016-Aug-26 12:55 303 0 gusting 3 17.8
2016-Aug-26 12:45 252 0 gusting 3 17.8
2016-Aug-26 12:35 256 17.8
2016-Aug-26 12:25 268 0 gusting 2 17.8
2016-Aug-26 12:15 248 0 gusting 2 18.3
2016-Aug-26 12:05 240 1 gusting 3 17.8
2016-Aug-26 11:55 290 1 gusting 9 17.8
2016-Aug-26 11:45 245 0 gusting 3 17.8
2016-Aug-26 11:35 234 0 gusting 3 17.8
2016-Aug-26 11:25 274 17.8
2016-Aug-26 11:15 282 0 gusting 3 17.2
2016-Aug-26 11:05 333 2 gusting 6 17.2
2016-Aug-26 10:55 327 2 gusting 6 17.8
2016-Aug-26 10:45 347 1 gusting 6 17.8
2016-Aug-26 10:35 289 1 gusting 5 17.8
2016-Aug-26 10:25 350 0 gusting 4 17.8
2016-Aug-26 10:15 295 0 gusting 2 17.8
2016-Aug-26 10:05 329 1 gusting 5 17.8
2016-Aug-26 09:55 355 1 gusting 5 18.9
2016-Aug-26 09:45 270 2 gusting 6 17.8
2016-Aug-26 09:35 278 1 gusting 5 17.8
2016-Aug-26 09:25 278 1 gusting 6 18.3
2016-Aug-26 09:15 328 1 gusting 6 17.8
2016-Aug-26 09:05 313 1 gusting 7 17.2
2016-Aug-26 08:55 340 1 gusting 6 17.2
2016-Aug-26 08:45 319 1 gusting 6 17.8
2016-Aug-26 08:35 287 1 gusting 5 17.2
2016-Aug-26 08:25 250 3 gusting 8 17.2
2016-Aug-26 08:15 286 2 gusting 7 17.8
2016-Aug-26 08:05 271 2 gusting 6 17.8
2016-Aug-26 07:55 241 1 gusting 5 17.2
2016-Aug-26 07:45 251 1 gusting 6 17.2
2016-Aug-26 07:35 295 0 gusting 6 16.7
2016-Aug-26 07:25 272 2 gusting 5 16.1
2016-Aug-26 07:15 247 1 gusting 4 16.1
2016-Aug-26 07:05 262 1 gusting 6 16.1
2016-Aug-26 06:55 262 1 gusting 6 16.1
2016-Aug-26 06:45 289 1 gusting 4 16.7
2016-Aug-26 06:35 281 2 gusting 6 16.7
2016-Aug-26 06:25 280 2 gusting 7 16.7
2016-Aug-26 06:15 244 1 gusting 6 16.7
2016-Aug-26 06:05 274 2 gusting 5 16.7
2016-Aug-26 05:55 276 2 gusting 5 16.1
2016-Aug-26 05:45 247 2 gusting 5 16.1
2016-Aug-26 05:35 288 1 gusting 5 15.6
2016-Aug-26 05:25 266 2 gusting 6 15.6
2016-Aug-26 05:15 260 1 gusting 5 15.0
2016-Aug-26 05:05 236 1 gusting 3 14.4
2016-Aug-26 04:55 227 1 gusting 5 13.9
2016-Aug-26 04:45 232 0 gusting 5 12.8
2016-Aug-26 04:35 257 12.8
2016-Aug-26 04:25 230 1 gusting 4 12.8
2016-Aug-26 04:15 240 1 gusting 6 12.8
2016-Aug-26 04:05 229 0 gusting 3 11.7
2016-Aug-26 03:55 238 0 gusting 5 11.1
2016-Aug-26 03:45 222 1 gusting 3 11.1
2016-Aug-26 03:35 233 0 gusting 2 11.7
2016-Aug-26 03:25 229 1 gusting 4 11.7
2016-Aug-26 03:15 221 1 gusting 4 11.7
2016-Aug-26 03:05 224 1 gusting 3 11.7
2016-Aug-26 02:55 228 0 gusting 3 11.7
2016-Aug-26 02:45 229 0 gusting 4 11.7
2016-Aug-26 02:35 225 0 gusting 2 11.7
2016-Aug-26 02:25 229 1 gusting 4 11.7
2016-Aug-26 02:15 230 0 gusting 4 11.7
2016-Aug-26 02:05 230 11.7
2016-Aug-26 01:55 229 1 gusting 3 12.2
2016-Aug-26 01:45 230 0 gusting 3 12.2
2016-Aug-26 01:35 221 12.2
2016-Aug-26 01:25 229 0 gusting 3 12.2
2016-Aug-26 01:15 231 1 gusting 4 12.2
2016-Aug-26 01:05 231 0 gusting 4 12.2
2016-Aug-26 00:55 235 12.2
2016-Aug-26 00:45 220 0 gusting 1 12.2
2016-Aug-26 00:35 225 0 gusting 2 12.2
2016-Aug-26 00:25 224 0 gusting 1 12.2
2016-Aug-26 00:15 228 0 gusting 2 12.2
2016-Aug-26 00:05 221 0 gusting 1 12.2
2016-Aug-25 23:55 223 0 gusting 4 12.2
2016-Aug-25 23:45 232 12.2
2016-Aug-25 23:35 224 0 gusting 1 12.8
2016-Aug-25 23:25 247 0 gusting 2 12.8
2016-Aug-25 23:15 263 12.8
2016-Aug-25 23:05 259 0 gusting 5 13.3
2016-Aug-25 22:55 228 0 gusting 3 13.3
2016-Aug-25 22:45 243 0 gusting 1 13.3
2016-Aug-25 22:35 245 13.3
2016-Aug-25 22:25 267 0 gusting 2 13.3
2016-Aug-25 22:15 247 0 gusting 2 13.9
2016-Aug-25 22:05 249 13.9
2016-Aug-25 21:55 267 1 gusting 4 13.9
2016-Aug-25 21:45 270 0 gusting 2 13.9
2016-Aug-25 21:35 268 1 gusting 4 13.9
2016-Aug-25 21:25 279 1 gusting 6 14.4
2016-Aug-25 21:15 258 1 gusting 4 13.9
2016-Aug-25 21:05 241 1 gusting 5 13.9
2016-Aug-25 20:55 233 0 gusting 2 13.9
2016-Aug-25 20:45 229 1 gusting 2 13.9
2016-Aug-25 20:35 225 1 gusting 4 13.9
2016-Aug-25 20:25 223 2 gusting 6 14.4
2016-Aug-25 20:15 215 2 gusting 4 14.4
2016-Aug-25 20:05 220 3 gusting 6 14.4
2016-Aug-25 19:55 221 3 gusting 6 14.4
2016-Aug-25 19:45 222 3 gusting 6 14.4
2016-Aug-25 19:35 227 3 gusting 8 14.4
2016-Aug-25 19:25 229 3 gusting 6 14.4
2016-Aug-25 19:15 226 2 gusting 5 14.4
2016-Aug-25 19:05 228 2 gusting 4 14.4
2016-Aug-25 18:55 223 1 gusting 4 14.4
2016-Aug-25 18:45 220 1 gusting 4 14.4
2016-Aug-25 18:35 225 1 gusting 3 14.4
2016-Aug-25 18:25 221 2 gusting 4 14.4
2016-Aug-25 18:15 221 1 gusting 4 14.4
2016-Aug-25 18:05 224 1 gusting 3 14.4
2016-Aug-25 17:55 226 0 gusting 1 13.9
2016-Aug-25 17:45 224 0 gusting 3 14.4
2016-Aug-25 17:35 232 1 gusting 3 14.4
2016-Aug-25 17:25 232 1 gusting 3 14.4
2016-Aug-25 17:15 223 1 gusting 3 14.4
2016-Aug-25 17:05 221 1 gusting 3 14.4
2016-Aug-25 16:55 225 1 gusting 2 15.0
2016-Aug-25 16:45 223 1 gusting 3 15.0
2016-Aug-25 16:35 220 1 gusting 3 15.0
2016-Aug-25 16:25 224 2 gusting 3 15.0
2016-Aug-25 16:15 224 1 gusting 2 15.0
2016-Aug-25 16:05 221 1 gusting 2 14.4
2016-Aug-25 15:55 221 1 gusting 3 14.4
2016-Aug-25 15:45 224 0 gusting 1 14.4
2016-Aug-25 15:35 222 1 gusting 3 14.4
2016-Aug-25 15:25 221 1 gusting 4 14.4
2016-Aug-25 15:15 220 1 gusting 3 14.4
2016-Aug-25 15:05 219 1 gusting 3 14.4
2016-Aug-25 14:55 224 1 gusting 4 14.4
2016-Aug-25 14:45 221 1 gusting 3 14.4
2016-Aug-25 14:35 216 1 gusting 4 14.4
2016-Aug-25 14:25 223 2 gusting 5 13.9
2016-Aug-25 14:15 220 2 gusting 4 13.9
2016-Aug-25 14:05 226 2 gusting 4 13.9
2016-Aug-25 13:55 220 2 gusting 4 13.9
2016-Aug-25 13:45 221 2 gusting 4 13.9
2016-Aug-25 13:35 225 2 gusting 5 13.9
2016-Aug-25 13:25 227 2 gusting 5 13.3
2016-Aug-25 13:15 227 2 gusting 6 13.3
2016-Aug-25 13:05 219 3 gusting 6 13.3
2016-Aug-25 12:55 226 2 gusting 5 13.3
2016-Aug-25 12:45 223 2 gusting 5 13.3
2016-Aug-25 12:35 218 3 gusting 6 13.3
2016-Aug-25 12:25 218 2 gusting 6 13.3
2016-Aug-25 12:15 214 2 gusting 5 13.3
2016-Aug-25 12:05 214 2 gusting 5 12.8
2016-Aug-25 11:55 215 2 gusting 4 12.8
2016-Aug-25 11:45 200 2 gusting 8 12.8
2016-Aug-25 11:35 189 0 gusting 4 12.8
2016-Aug-25 11:25 206 0 gusting 1 12.2
2016-Aug-25 11:15 214 1 gusting 3 12.2
2016-Aug-25 11:05 197 1 gusting 5 12.2
2016-Aug-25 10:55 204 1 gusting 4 12.2
2016-Aug-25 10:45 200 1 gusting 3 12.2
2016-Aug-25 10:35 183 1 gusting 5 12.2
2016-Aug-25 10:25 195 2 gusting 4 11.7
2016-Aug-25 10:15 176 2 gusting 6 11.7
2016-Aug-25 10:05 160 0 gusting 5 11.7
2016-Aug-25 09:55 141 0 gusting 5 11.7
2016-Aug-25 09:45 158 11.7
2016-Aug-25 09:35 116 0 gusting 2 11.1
2016-Aug-25 09:25 154 0 gusting 5 11.7
2016-Aug-25 09:15 169 2 gusting 8 11.7
2016-Aug-25 09:05 167 0 gusting 5 11.7
2016-Aug-25 08:55 173 1 gusting 6 11.7
2016-Aug-25 08:45 191 0 gusting 1 11.7
2016-Aug-25 08:35 195 0 gusting 3 11.7
2016-Aug-25 08:25 203 0 gusting 4 11.7
2016-Aug-25 08:15 212 0 gusting 1 11.7
2016-Aug-25 08:05 188 0 gusting 3 11.7
2016-Aug-25 07:55 181 0 gusting 1 11.7
2016-Aug-25 07:45 217 0 gusting 2 11.7
2016-Aug-25 07:35 214 0 gusting 2 11.7
2016-Aug-25 07:25 203 1 gusting 5 11.7
2016-Aug-25 07:15 209 1 gusting 4 11.7
2016-Aug-25 07:05 200 1 gusting 5 11.1
2016-Aug-25 06:55 207 1 gusting 3 11.1
2016-Aug-25 06:45 206 1 gusting 3 11.1
2016-Aug-25 06:35 193 0 gusting 1 11.1
2016-Aug-25 06:25 208 0 gusting 3 11.1
2016-Aug-25 06:15 182 1 gusting 5 11.1
2016-Aug-25 06:05 204 1 gusting 3 11.1